Time,TemperatureF,DewpointF,PressureIn,WindDirection,WindDirectionDegrees,WindSpeedMPH,WindSpeedGustMPH,Humidity,HourlyPrecipIn,Conditions,Clouds,dailyrainin,SoftwareType,DateUTC
2013-08-23 00:00:00,64.2,57.5,30.46,NNW,338,0.0,0.0,79,0.00,,,0.00,WUHU216HW,2013-08-23 04:00:00,
2013-08-23 00:01:00,64.2,57.5,30.46,NNW,338,0.0,0.0,79,0.00,,,0.00,WUHU216HW,2013-08-23 04:01:00,
2013-08-23 00:06:00,64.0,57.7,30.46,NNW,338,0.0,0.0,80,0.00,,,0.00,WUHU216HW,2013-08-23 04:06:00,
2013-08-23 00:11:00,63.8,57.5,30.47,NNW,338,0.0,0.0,80,0.00,,,0.00,WUHU216HW,2013-08-23 04:11:00,
2013-08-23 00:16:00,63.6,57.3,30.47,NNW,338,0.0,0.0,80,0.00,,,0.00,WUHU216HW,2013-08-23 04:16:00,
2013-08-23 00:21:00,63.5,57.2,30.47,NNW,338,0.0,0.0,80,0.00,,,0.00,WUHU216HW,2013-08-23 04:21:00,
2013-08-23 00:26:00,63.5,57.2,30.47,NNW,338,0.0,0.0,80,0.00,,,0.00,WUHU216HW,2013-08-23 04:26:00,
2013-08-23 00:31:00,63.3,57.0,30.47,NNW,338,0.0,0.0,80,0.00,,,0.00,WUHU216HW,2013-08-23 04:31:00,
2013-08-23 00:36:00,63.1,56.8,30.47,NNW,338,0.0,0.0,80,0.00,,,0.00,WUHU216HW,2013-08-23 04:36:00,
2013-08-23 00:41:00,62.9,56.6,30.47,NNW,338,0.0,0.0,80,0.00,,,0.00,WUHU216HW,2013-08-23 04:41:00,
2013-08-23 00:46:00,62.7,56.4,30.47,NNW,338,0.0,0.0,80,0.00,,,0.00,WUHU216HW,2013-08-23 04:46:00,
2013-08-23 00:51:00,62.9,56.6,30.48,NNW,338,0.0,0.0,80,0.00,,,0.00,WUHU216HW,2013-08-23 04:51:00,
2013-08-23 00:56:00,62.9,56.6,30.48,NNW,338,0.0,0.0,80,0.00,,,0.00,WUHU216HW,2013-08-23 04:56:00,
2013-08-23 01:01:00,63.1,56.8,30.48,NNW,338,0.0,0.0,80,0.00,,,0.00,WUHU216HW,2013-08-23 05:01:00,
2013-08-23 01:06:00,63.1,56.4,30.48,NNW,338,0.0,0.0,79,0.00,,,0.00,WUHU216HW,2013-08-23 05:06:00,
2013-08-23 01:11:00,63.1,56.1,30.48,NNW,338,0.0,0.0,78,0.00,,,0.00,WUHU216HW,2013-08-23 05:11:00,
2013-08-23 01:16:00,63.1,56.1,30.48,NNW,338,0.0,0.0,78,0.00,,,0.00,WUHU216HW,2013-08-23 05:16:00,
2013-08-23 01:21:00,63.1,56.1,30.48,NNW,338,0.0,0.0,78,0.00,,,0.00,WUHU216HW,2013-08-23 05:21:00,
2013-08-23 01:26:00,62.9,55.9,30.49,NNW,338,0.0,0.0,78,0.00,,,0.00,WUHU216HW,2013-08-23 05:26:00,
2013-08-23 01:31:00,62.7,55.4,30.49,NNW,338,0.0,0.0,77,0.00,,,0.00,WUHU216HW,2013-08-23 05:31:00,
2013-08-23 01:36:00,62.4,54.3,30.49,NNW,338,0.0,0.0,75,0.00,,,0.00,WUHU216HW,2013-08-23 05:36:00,
2013-08-23 01:41:00,62.4,54.3,30.49,NNW,338,0.0,0.0,75,0.00,,,0.00,WUHU216HW,2013-08-23 05:41:00,
2013-08-23 01:46:00,62.4,54.3,30.49,NNW,338,0.0,0.0,75,0.00,,,0.00,WUHU216HW,2013-08-23 05:46:00,
2013-08-23 01:51:00,62.2,54.1,30.49,NNW,338,0.0,0.0,75,0.00,,,0.00,WUHU216HW,2013-08-23 05:51:00,
2013-08-23 01:56:00,62.0,54.3,30.49,NNW,338,0.0,0.0,76,0.00,,,0.00,WUHU216HW,2013-08-23 05:56:00,
2013-08-23 02:01:00,61.8,54.2,30.49,NNW,338,0.0,0.0,76,0.00,,,0.00,WUHU216HW,2013-08-23 06:01:00,
2013-08-23 02:06:00,61.7,54.0,30.49,NNW,338,0.0,0.0,76,0.00,,,0.00,WUHU216HW,2013-08-23 06:06:00,
2013-08-23 02:11:00,61.3,53.7,30.49,NNW,338,0.0,0.0,76,0.00,,,0.00,WUHU216HW,2013-08-23 06:11:00,
2013-08-23 02:16:00,61.1,53.5,30.49,NNW,338,0.0,0.0,76,0.00,,,0.00,WUHU216HW,2013-08-23 06:16:00,
2013-08-23 02:21:00,60.6,53.0,30.49,NNW,338,0.0,0.0,76,0.00,,,0.00,WUHU216HW,2013-08-23 06:21:00,
2013-08-23 02:26:00,60.4,52.8,30.49,NNW,338,0.0,0.0,76,0.00,,,0.00,WUHU216HW,2013-08-23 06:26:00,
2013-08-23 02:31:00,60.0,52.8,30.49,NNW,338,0.0,0.0,77,0.00,,,0.00,WUHU216HW,2013-08-23 06:31:00,
2013-08-23 02:36:00,59.9,52.7,30.48,NNW,338,0.0,0.0,77,0.00,,,0.00,WUHU216HW,2013-08-23 06:36:00,
2013-08-23 02:41:00,59.7,52.8,30.49,NNW,338,0.0,0.0,78,0.00,,,0.00,WUHU216HW,2013-08-23 06:41:00,
2013-08-23 02:46:00,59.7,52.8,30.49,NNW,338,0.0,0.0,78,0.00,,,0.00,WUHU216HW,2013-08-23 06:46:00,
2013-08-23 02:51:00,59.5,52.3,30.49,NNW,338,0.0,0.0,77,0.00,,,0.00,WUHU216HW,2013-08-23 06:51:00,
2013-08-23 02:56:00,59.3,52.1,30.49,NNW,338,0.0,0.0,77,0.00,,,0.00,WUHU216HW,2013-08-23 06:56:00,
2013-08-23 03:01:00,59.1,51.9,30.49,NNW,338,0.0,0.0,77,0.00,,,0.00,WUHU216HW,2013-08-23 07:01:00,
2013-08-23 03:06:00,58.8,51.6,30.48,NNW,338,0.0,0.0,77,0.00,,,0.00,WUHU216HW,2013-08-23 07:06:00,
2013-08-23 03:11:00,58.8,51.2,30.48,NNW,338,0.0,0.0,76,0.00,,,0.00,WUHU216HW,2013-08-23 07:11:00,
2013-08-23 03:16:00,58.8,51.6,30.48,NNW,338,0.0,0.0,77,0.00,,,0.00,WUHU216HW,2013-08-23 07:16:00,
2013-08-23 03:21:00,58.4,51.2,30.48,NNW,338,0.0,0.0,77,0.00,,,0.00,WUHU216HW,2013-08-23 07:21:00,
2013-08-23 03:26:00,58.2,51.0,30.48,NNW,338,0.0,0.0,77,0.00,,,0.00,WUHU216HW,2013-08-23 07:26:00,
2013-08-23 03:31:00,58.1,50.9,30.48,NNW,338,0.0,0.0,77,0.00,,,0.00,WUHU216HW,2013-08-23 07:31:00,
2013-08-23 03:36:00,57.9,50.7,30.47,NNW,338,0.0,0.0,77,0.00,,,0.00,WUHU216HW,2013-08-23 07:36:00,
2013-08-23 03:41:00,57.5,50.3,30.48,NNW,338,0.0,0.0,77,0.00,,,0.00,WUHU216HW,2013-08-23 07:41:00,
2013-08-23 03:46:00,57.3,50.1,30.48,NNW,338,0.0,0.0,77,0.00,,,0.00,WUHU216HW,2013-08-23 07:46:00,
2013-08-23 03:51:00,57.0,49.8,30.48,NNW,338,0.0,0.0,77,0.00,,,0.00,WUHU216HW,2013-08-23 07:51:00,
2013-08-23 03:56:00,57.0,50.1,30.48,NNW,338,0.0,0.0,78,0.00,,,0.00,WUHU216HW,2013-08-23 07:56:00,
2013-08-23 04:01:00,57.0,50.1,30.48,NNW,338,0.0,0.0,78,0.00,,,0.00,WUHU216HW,2013-08-23 08:01:00,
2013-08-23 04:06:00,56.8,50.0,30.48,NNW,338,0.0,0.0,78,0.00,,,0.00,WUHU216HW,2013-08-23 08:06:00,
2013-08-23 04:11:00,56.8,50.0,30.48,NNW,338,0.0,0.0,78,0.00,,,0.00,WUHU216HW,2013-08-23 08:11:00,
2013-08-23 04:16:00,56.8,50.0,30.48,NNW,338,0.0,0.0,78,0.00,,,0.00,WUHU216HW,2013-08-23 08:16:00,
2013-08-23 04:21:00,56.6,49.8,30.49,NNW,338,0.0,0.0,78,0.00,,,0.00,WUHU216HW,2013-08-23 08:21:00,
2013-08-23 04:26:00,56.4,49.6,30.49,NNW,338,0.0,0.0,78,0.00,,,0.00,WUHU216HW,2013-08-23 08:26:00,
2013-08-23 04:31:00,56.4,49.6,30.49,NNW,338,0.0,0.0,78,0.00,,,0.00,WUHU216HW,2013-08-23 08:31:00,
2013-08-23 04:36:00,56.8,50.0,30.49,NNW,338,0.0,0.0,78,0.00,,,0.00,WUHU216HW,2013-08-23 08:36:00,
2013-08-23 04:41:00,57.0,50.1,30.49,NNW,338,0.0,0.0,78,0.00,,,0.00,WUHU216HW,2013-08-23 08:41:00,
2013-08-23 04:46:00,57.2,50.3,30.49,NNW,338,0.0,0.0,78,0.00,,,0.00,WUHU216HW,2013-08-23 08:46:00,
2013-08-23 04:51:00,57.3,50.5,30.49,NNW,338,0.0,0.0,78,0.00,,,0.00,WUHU216HW,2013-08-23 08:51:00,
2013-08-23 04:56:00,57.3,50.1,30.49,NNW,338,0.0,0.0,77,0.00,,,0.00,WUHU216HW,2013-08-23 08:56:00,
2013-08-23 05:01:00,57.5,50.0,30.49,NNW,338,0.0,0.0,76,0.00,,,0.00,WUHU216HW,2013-08-23 09:01:00,
2013-08-23 05:06:00,57.5,50.0,30.49,NNW,338,0.0,0.0,76,0.00,,,0.00,WUHU216HW,2013-08-23 09:06:00,
2013-08-23 05:11:00,57.3,49.8,30.49,NNW,338,0.0,0.0,76,0.00,,,0.00,WUHU216HW,2013-08-23 09:11:00,
2013-08-23 05:16:00,57.3,49.4,30.49,NNW,338,0.0,0.0,75,0.00,,,0.00,WUHU216HW,2013-08-23 09:16:00,
2013-08-23 05:21:00,57.3,49.4,30.49,NNW,338,0.0,0.0,75,0.00,,,0.00,WUHU216HW,2013-08-23 09:21:00,
2013-08-23 05:26:00,57.0,49.1,30.50,NNW,338,0.0,0.0,75,0.00,,,0.00,WUHU216HW,2013-08-23 09:26:00,
2013-08-23 05:31:00,57.0,49.1,30.49,NNW,338,0.0,0.0,75,0.00,,,0.00,WUHU216HW,2013-08-23 09:31:00,
2013-08-23 05:36:00,57.0,49.1,30.49,NNW,338,0.0,0.0,75,0.00,,,0.00,WUHU216HW,2013-08-23 09:36:00,
2013-08-23 05:41:00,57.0,49.1,30.50,NNW,338,0.0,0.0,75,0.00,,,0.00,WUHU216HW,2013-08-23 09:41:00,
2013-08-23 05:46:00,56.8,48.9,30.50,NNW,338,0.0,0.0,75,0.00,,,0.00,WUHU216HW,2013-08-23 09:46:00,
2013-08-23 05:51:00,56.8,49.2,30.50,NNW,338,0.0,0.0,76,0.00,,,0.00,WUHU216HW,2013-08-23 09:51:00,
2013-08-23 05:56:00,56.4,48.9,30.50,NNW,338,0.0,0.0,76,0.00,,,0.00,WUHU216HW,2013-08-23 09:56:00,
2013-08-23 06:01:00,56.1,48.5,30.50,NNW,338,0.0,0.0,76,0.00,,,0.00,WUHU216HW,2013-08-23 10:01:00,
2013-08-23 06:06:00,55.9,48.4,30.51,NNW,338,0.0,0.0,76,0.00,,,0.00,WUHU216HW,2013-08-23 10:06:00,
2013-08-23 06:11:00,55.7,48.5,30.51,NNW,338,0.0,0.0,77,0.00,,,0.00,WUHU216HW,2013-08-23 10:11:00,
2013-08-23 06:15:00,55.5,48.4,30.51,NNW,338,0.0,0.0,77,0.00,,,0.00,WUHU216HW,2013-08-23 10:15:00,
2013-08-23 06:20:00,55.2,48.0,30.51,NNW,338,0.0,0.0,77,0.00,,,0.00,WUHU216HW,2013-08-23 10:20:00,
2013-08-23 06:25:00,55.0,47.9,30.51,NNW,338,0.0,0.0,77,0.00,,,0.00,WUHU216HW,2013-08-23 10:25:00,
2013-08-23 06:30:00,55.0,48.2,30.51,NNW,338,0.0,0.0,78,0.00,,,0.00,WUHU216HW,2013-08-23 10:30:00,
2013-08-23 06:35:00,55.0,48.2,30.51,NNW,338,0.0,0.0,78,0.00,,,0.00,WUHU216HW,2013-08-23 10:35:00,
2013-08-23 06:40:00,55.2,48.4,30.51,NNW,338,0.0,0.0,78,0.00,,,0.00,WUHU216HW,2013-08-23 10:40:00,
2013-08-23 06:45:00,55.2,48.4,30.51,NNW,338,0.0,0.0,78,0.00,,,0.00,WUHU216HW,2013-08-23 10:45:00,
2013-08-23 06:50:00,55.4,48.2,30.52,NNW,338,0.0,0.0,77,0.00,,,0.00,WUHU216HW,2013-08-23 10:50:00,
2013-08-23 06:55:00,55.4,48.2,30.52,NNW,338,0.0,0.0,77,0.00,,,0.00,WUHU216HW,2013-08-23 10:55:00,
2013-08-23 07:00:00,55.4,48.2,30.52,NNW,338,0.0,0.0,77,0.00,,,0.00,WUHU216HW,2013-08-23 11:00:00,
2013-08-23 07:05:00,55.5,48.4,30.52,NNW,338,0.0,0.0,77,0.00,,,0.00,WUHU216HW,2013-08-23 11:05:00,
2013-08-23 07:10:00,55.7,48.5,30.52,NNW,338,0.0,0.0,77,0.00,,,0.00,WUHU216HW,2013-08-23 11:10:00,
2013-08-23 07:15:00,55.7,48.5,30.52,NNW,338,0.0,0.0,77,0.00,,,0.00,WUHU216HW,2013-08-23 11:15:00,
2013-08-23 07:20:00,55.9,48.4,30.52,NNW,338,0.0,0.0,76,0.00,,,0.00,WUHU216HW,2013-08-23 11:20:00,
2013-08-23 07:25:00,56.1,48.5,30.52,NNW,338,0.0,0.0,76,0.00,,,0.00,WUHU216HW,2013-08-23 11:25:00,
2013-08-23 07:30:00,55.9,48.4,30.53,NNW,338,0.0,0.0,76,0.00,,,0.00,WUHU216HW,2013-08-23 11:30:00,
2013-08-23 07:35:00,56.1,48.5,30.53,NNW,338,0.0,0.0,76,0.00,,,0.00,WUHU216HW,2013-08-23 11:35:00,
2013-08-23 07:40:00,55.9,48.4,30.53,NNW,338,0.0,0.0,76,0.00,,,0.00,WUHU216HW,2013-08-23 11:40:00,
2013-08-23 07:45:00,55.9,48.4,30.53,NNW,338,0.0,0.0,76,0.00,,,0.00,WUHU216HW,2013-08-23 11:45:00,
2013-08-23 07:50:00,55.9,48.7,30.53,NNW,338,0.0,0.0,77,0.00,,,0.00,WUHU216HW,2013-08-23 11:50:00,
2013-08-23 07:55:00,55.9,48.7,30.54,NNW,338,0.0,0.0,77,0.00,,,0.00,WUHU216HW,2013-08-23 11:55:00,
2013-08-23 08:00:00,56.1,48.9,30.54,NNW,338,0.0,0.0,77,0.00,,,0.00,WUHU216HW,2013-08-23 12:00:00,
2013-08-23 08:05:00,56.1,48.9,30.54,NNW,338,0.0,0.0,77,0.00,,,0.00,WUHU216HW,2013-08-23 12:05:00,
2013-08-23 08:10:00,56.1,48.9,30.54,NNW,338,0.0,0.0,77,0.00,,,0.00,WUHU216HW,2013-08-23 12:10:00,
2013-08-23 08:15:00,56.3,49.1,30.54,NNW,338,0.0,0.0,77,0.00,,,0.00,WUHU216HW,2013-08-23 12:15:00,
2013-08-23 08:20:00,56.3,49.1,30.55,NNW,338,0.0,0.0,77,0.00,,,0.00,WUHU216HW,2013-08-23 12:20:00,
2013-08-23 08:25:00,56.4,49.6,30.55,NNW,338,0.0,0.0,78,0.00,,,0.00,WUHU216HW,2013-08-23 12:25:00,
2013-08-23 08:30:00,56.8,50.0,30.55,NNW,338,0.0,0.0,78,0.00,,,0.00,WUHU216HW,2013-08-23 12:30:00,
2013-08-23 08:35:00,56.8,50.0,30.55,NNW,338,0.0,0.0,78,0.00,,,0.00,WUHU216HW,2013-08-23 12:35:00,
2013-08-23 08:40:00,57.0,50.1,30.55,North,0,0.0,0.0,78,0.00,,,0.00,WUHU216HW,2013-08-23 12:40:00,
2013-08-23 08:45:00,57.3,50.5,30.55,North,0,0.0,0.0,78,0.00,,,0.00,WUHU216HW,2013-08-23 12:45:00,
2013-08-23 08:50:00,57.5,50.7,30.55,North,0,0.0,0.0,78,0.00,,,0.00,WUHU216HW,2013-08-23 12:50:00,
2013-08-23 08:55:00,57.9,51.0,30.55,North,0,0.0,0.0,78,0.00,,,0.00,WUHU216HW,2013-08-23 12:55:00,
2013-08-23 09:00:00,58.2,51.4,30.55,NNE,23,0.0,0.0,78,0.00,,,0.00,WUHU216HW,2013-08-23 13:00:00,
2013-08-23 09:05:00,58.6,51.8,30.55,NNE,23,0.0,0.0,78,0.00,,,0.00,WUHU216HW,2013-08-23 13:05:00,
2013-08-23 09:10:00,58.8,51.9,30.55,NNE,23,0.0,0.0,78,0.00,,,0.00,WUHU216HW,2013-08-23 13:10:00,
2013-08-23 09:15:00,58.8,51.9,30.55,NNE,23,0.0,0.0,78,0.00,,,0.00,WUHU216HW,2013-08-23 13:15:00,
2013-08-23 09:20:00,59.1,52.3,30.55,NNE,23,0.0,0.0,78,0.00,,,0.00,WUHU216HW,2013-08-23 13:20:00,
2013-08-23 09:25:00,59.5,52.7,30.55,NNE,23,0.0,0.0,78,0.00,,,0.00,WUHU216HW,2013-08-23 13:25:00,
2013-08-23 09:30:00,59.7,52.8,30.55,NNE,23,0.0,0.0,78,0.00,,,0.00,WUHU216HW,2013-08-23 13:30:00,
2013-08-23 09:35:00,60.0,53.2,30.55,NNE,23,0.0,0.0,78,0.00,,,0.00,WUHU216HW,2013-08-23 13:35:00,
2013-08-23 09:40:00,60.4,53.6,30.55,NNE,23,0.0,0.0,78,0.00,,,0.00,WUHU216HW,2013-08-23 13:40:00,
2013-08-23 09:45:00,60.6,53.7,30.55,NNE,23,0.0,0.0,78,0.00,,,0.00,WUHU216HW,2013-08-23 13:45:00,
2013-08-23 09:50:00,60.8,53.9,30.55,NNE,23,0.0,0.0,78,0.00,,,0.00,WUHU216HW,2013-08-23 13:50:00,
2013-08-23 09:55:00,61.3,54.4,30.55,NNE,23,0.0,0.0,78,0.00,,,0.00,WUHU216HW,2013-08-23 13:55:00,
2013-08-23 10:00:00,61.7,54.4,30.56,NNE,23,0.0,0.0,77,0.00,,,0.00,WUHU216HW,2013-08-23 14:00:00,
2013-08-23 10:05:00,62.2,54.8,30.56,NNE,23,0.0,0.0,77,0.00,,,0.00,WUHU216HW,2013-08-23 14:05:00,
2013-08-23 10:10:00,62.6,55.2,30.56,NNE,23,0.0,0.0,77,0.00,,,0.00,WUHU216HW,2013-08-23 14:10:00,
2013-08-23 10:15:00,62.7,55.0,30.56,NNE,23,0.0,0.0,76,0.00,,,0.00,WUHU216HW,2013-08-23 14:15:00,
2013-08-23 10:20:00,63.1,55.4,30.56,NNE,23,0.0,0.0,76,0.00,,,0.00,WUHU216HW,2013-08-23 14:20:00,
2013-08-23 10:25:00,63.5,55.7,30.56,NNE,23,0.0,0.0,76,0.00,,,0.00,WUHU216HW,2013-08-23 14:25:00,
2013-08-23 10:30:00,63.6,55.9,30.56,NNE,23,0.0,0.0,76,0.00,,,0.00,WUHU216HW,2013-08-23 14:30:00,
2013-08-23 10:35:00,64.0,55.9,30.56,NNE,23,0.0,0.0,75,0.00,,,0.00,WUHU216HW,2013-08-23 14:35:00,
2013-08-23 10:40:00,64.5,56.4,30.56,NNE,23,0.0,0.0,75,0.00,,,0.00,WUHU216HW,2013-08-23 14:40:00,
2013-08-23 10:45:00,64.9,56.8,30.57,NNE,23,0.0,0.0,75,0.00,,,0.00,WUHU216HW,2013-08-23 14:45:00,
2013-08-23 10:50:00,65.1,56.9,30.57,North,0,0.0,0.0,75,0.00,,,0.00,WUHU216HW,2013-08-23 14:50:00,
2013-08-23 10:55:00,65.3,57.1,30.57,North,0,0.0,0.0,75,0.00,,,0.00,WUHU216HW,2013-08-23 14:55:00,
2013-08-23 11:00:00,65.6,57.1,30.57,North,0,0.0,0.0,74,0.00,,,0.00,WUHU216HW,2013-08-23 15:00:00,
2013-08-23 11:05:00,66.0,57.0,30.57,North,0,0.0,0.0,73,0.00,,,0.00,WUHU216HW,2013-08-23 15:05:00,
2013-08-23 11:10:00,66.3,57.4,30.57,North,0,0.0,0.0,73,0.00,,,0.00,WUHU216HW,2013-08-23 15:10:00,
2013-08-23 11:15:00,66.3,57.4,30.56,North,0,0.0,0.0,73,0.00,,,0.00,WUHU216HW,2013-08-23 15:15:00,
2013-08-23 11:20:00,66.5,57.6,30.57,North,0,0.0,0.0,73,0.00,,,0.00,WUHU216HW,2013-08-23 15:20:00,
2013-08-23 11:25:00,67.1,57.7,30.57,North,0,0.0,0.0,72,0.00,,,0.00,WUHU216HW,2013-08-23 15:25:00,
2013-08-23 11:30:00,67.4,58.1,30.57,SW,225,0.0,0.0,72,0.00,,,0.00,WUHU216HW,2013-08-23 15:30:00,
2013-08-23 11:35:00,67.6,58.6,30.57,SW,225,0.0,0.0,73,0.00,,,0.00,WUHU216HW,2013-08-23 15:35:00,
2013-08-23 11:40:00,68.1,58.8,30.57,NW,315,0.0,0.0,72,0.00,,,0.00,WUHU216HW,2013-08-23 15:40:00,
2013-08-23 11:45:00,68.5,58.4,30.57,NW,315,0.0,0.0,70,0.00,,,0.00,WUHU216HW,2013-08-23 15:45:00,
2013-08-23 11:50:00,68.9,57.8,30.57,NNW,338,0.0,0.0,68,0.00,,,0.00,WUHU216HW,2013-08-23 15:50:00,
2013-08-23 11:55:00,69.6,58.1,30.57,North,0,1.5,1.5,67,0.00,,,0.00,WUHU216HW,2013-08-23 15:55:00,
2013-08-23 12:00:00,70.1,58.2,30.57,North,0,0.0,1.5,66,0.00,,,0.00,WUHU216HW,2013-08-23 16:00:00,
2013-08-23 12:05:00,70.8,59.3,30.57,North,0,0.0,1.5,67,0.00,,,0.00,WUHU216HW,2013-08-23 16:05:00,
2013-08-23 12:10:00,71.7,59.7,30.57,North,0,0.0,0.0,66,0.00,,,0.00,WUHU216HW,2013-08-23 16:10:00,
2013-08-23 12:15:00,72.6,59.7,30.57,NNE,23,0.0,0.0,64,0.00,,,0.00,WUHU216HW,2013-08-23 16:15:00,
2013-08-23 12:20:00,73.5,60.6,30.56,NE,45,0.0,0.0,64,0.00,,,0.00,WUHU216HW,2013-08-23 16:20:00,
2013-08-23 12:25:00,74.8,60.9,30.56,NE,45,0.0,0.0,62,0.00,,,0.00,WUHU216HW,2013-08-23 16:25:00,
2013-08-23 12:30:00,75.5,61.1,30.56,NE,45,0.0,0.0,61,0.00,,,0.00,WUHU216HW,2013-08-23 16:30:00,
2013-08-23 12:35:00,76.2,60.9,30.56,NNE,23,0.0,0.0,59,0.00,,,0.00,WUHU216HW,2013-08-23 16:35:00,
2013-08-23 12:40:00,77.1,61.7,30.56,NNE,23,0.0,0.0,59,0.00,,,0.00,WUHU216HW,2013-08-23 16:40:00,
2013-08-23 12:45:00,77.9,61.9,30.56,NNE,23,0.0,0.0,58,0.00,,,0.00,WUHU216HW,2013-08-23 16:45:00,
2013-08-23 12:50:00,78.4,60.3,30.56,NNE,23,0.0,2.6,54,0.00,,,0.00,WUHU216HW,2013-08-23 16:50:00,
2013-08-23 12:55:00,77.7,59.1,30.56,North,0,0.0,2.6,53,0.00,,,0.00,WUHU216HW,2013-08-23 16:55:00,
2013-08-23 13:00:00,77.5,59.5,30.56,NNE,23,0.0,0.0,54,0.00,,,0.00,WUHU216HW,2013-08-23 17:00:00,
2013-08-23 13:05:00,77.7,60.7,30.56,NE,45,0.0,0.0,56,0.00,,,0.00,WUHU216HW,2013-08-23 17:05:00,
2013-08-23 13:10:00,78.9,61.4,30.55,ENE,68,0.0,0.0,55,0.00,,,0.00,WUHU216HW,2013-08-23 17:10:00,
2013-08-23 13:15:00,79.5,61.3,30.55,ENE,68,0.0,0.0,54,0.00,,,0.00,WUHU216HW,2013-08-23 17:15:00,
2013-08-23 13:20:00,79.7,61.0,30.55,ENE,68,0.0,0.0,53,0.00,,,0.00,WUHU216HW,2013-08-23 17:20:00,
2013-08-23 13:25:00,80.4,61.1,30.55,ENE,68,0.0,0.0,52,0.00,,,0.00,WUHU216HW,2013-08-23 17:25:00,
2013-08-23 13:30:00,80.7,61.4,30.55,ENE,68,0.0,0.0,52,0.00,,,0.00,WUHU216HW,2013-08-23 17:30:00,
2013-08-23 13:35:00,80.7,61.4,30.55,NNE,23,0.0,0.0,52,0.00,,,0.00,WUHU216HW,2013-08-23 17:35:00,
2013-08-23 13:40:00,79.7,59.4,30.55,NNE,23,0.0,0.0,50,0.00,,,0.00,WUHU216HW,2013-08-23 17:40:00,
2013-08-23 13:45:00,78.8,59.1,30.55,NNE,23,0.0,0.0,51,0.00,,,0.00,WUHU216HW,2013-08-23 17:45:00,
2013-08-23 13:50:00,78.9,59.8,30.55,East,90,0.0,0.0,52,0.00,,,0.00,WUHU216HW,2013-08-23 17:50:00,
2013-08-23 13:55:00,79.5,60.3,30.55,East,90,0.0,0.0,52,0.00,,,0.00,WUHU216HW,2013-08-23 17:55:00,
2013-08-23 14:00:00,79.8,60.6,30.55,East,90,0.0,0.0,52,0.00,,,0.00,WUHU216HW,2013-08-23 18:00:00,
2013-08-23 14:05:00,80.4,62.0,30.55,NE,45,0.0,0.0,54,0.00,,,0.00,WUHU216HW,2013-08-23 18:05:00,
2013-08-23 14:10:00,80.4,60.0,30.55,NE,45,0.0,0.4,50,0.00,,,0.00,WUHU216HW,2013-08-23 18:10:00,
2013-08-23 14:15:00,80.4,60.6,30.55,NNE,23,0.0,0.4,51,0.00,,,0.00,WUHU216HW,2013-08-23 18:15:00,
2013-08-23 14:20:00,80.4,60.0,30.55,NNE,23,0.0,5.3,50,0.00,,,0.00,WUHU216HW,2013-08-23 18:20:00,
2013-08-23 14:25:00,80.4,61.1,30.55,NNE,23,0.0,5.3,52,0.00,,,0.00,WUHU216HW,2013-08-23 18:25:00,
2013-08-23 14:30:00,80.2,60.4,30.55,NNE,23,0.0,0.0,51,0.00,,,0.00,WUHU216HW,2013-08-23 18:30:00,
2013-08-23 14:35:00,80.4,60.9,30.55,NNE,23,0.0,0.0,52,0.00,,,0.00,WUHU216HW,2013-08-23 18:35:00,
2013-08-23 14:40:00,80.4,61.1,30.55,NNE,23,0.0,0.0,52,0.00,,,0.00,WUHU216HW,2013-08-23 18:40:00,
2013-08-23 14:45:00,80.9,60.5,30.55,North,0,4.9,4.9,50,0.00,,,0.00,WUHU216HW,2013-08-23 18:45:00,
2013-08-23 14:50:00,80.2,59.3,30.54,NE,45,0.0,4.9,49,0.00,,,0.00,WUHU216HW,2013-08-23 18:50:00,
2013-08-23 14:55:00,79.5,59.2,30.54,NE,45,0.0,4.9,50,0.00,,,0.00,WUHU216HW,2013-08-23 18:55:00,
2013-08-23 15:00:00,78.9,59.8,30.54,SE,135,0.0,0.0,52,0.00,,,0.00,WUHU216HW,2013-08-23 19:00:00,
2013-08-23 15:05:00,79.3,60.6,30.54,SE,135,0.0,0.0,53,0.00,,,0.00,WUHU216HW,2013-08-23 19:05:00,
2013-08-23 15:10:00,79.7,60.4,30.54,ESE,113,0.0,0.0,52,0.00,,,0.00,WUHU216HW,2013-08-23 19:10:00,
2013-08-23 15:15:00,80.2,60.9,30.54,ENE,68,0.0,0.0,52,0.00,,,0.00,WUHU216HW,2013-08-23 19:15:00,
2013-08-23 15:20:00,80.4,61.1,30.54,ENE,68,0.0,0.0,52,0.00,,,0.00,WUHU216HW,2013-08-23 19:20:00,
2013-08-23 15:25:00,80.4,61.1,30.54,ESE,113,0.0,0.0,52,0.00,,,0.00,WUHU216HW,2013-08-23 19:25:00,
2013-08-23 15:30:00,80.9,61.1,30.53,ESE,113,0.0,0.0,51,0.00,,,0.00,WUHU216HW,2013-08-23 19:30:00,
2013-08-23 15:35:00,80.9,60.5,30.53,North,0,0.0,0.0,50,0.00,,,0.00,WUHU216HW,2013-08-23 19:35:00,
2013-08-23 15:40:00,80.9,60.5,30.53,North,0,0.0,0.0,50,0.00,,,0.00,WUHU216HW,2013-08-23 19:40:00,
2013-08-23 15:45:00,80.9,59.9,30.53,NNE,23,0.0,0.0,49,0.00,,,0.00,WUHU216HW,2013-08-23 19:45:00,
2013-08-23 15:50:00,81.1,60.1,30.53,ENE,68,0.0,0.0,49,0.00,,,0.00,WUHU216HW,2013-08-23 19:50:00,
2013-08-23 15:55:00,80.9,59.9,30.53,ENE,68,0.0,0.0,49,0.00,,,0.00,WUHU216HW,2013-08-23 19:55:00,
2013-08-23 16:00:00,80.4,59.4,30.53,ENE,68,0.0,0.0,49,0.00,,,0.00,WUHU216HW,2013-08-23 20:00:00,
2013-08-23 16:05:00,80.4,59.4,30.53,East,90,0.0,0.0,49,0.00,,,0.00,WUHU216HW,2013-08-23 20:05:00,
2013-08-23 16:10:00,80.0,59.1,30.53,East,90,0.0,0.0,49,0.00,,,0.00,WUHU216HW,2013-08-23 20:10:00,
2013-08-23 16:15:00,79.8,59.0,30.53,ESE,113,0.0,0.0,49,0.00,,,0.00,WUHU216HW,2013-08-23 20:15:00,
2013-08-23 16:20:00,79.8,59.0,30.53,ESE,113,0.0,0.0,49,0.00,,,0.00,WUHU216HW,2013-08-23 20:20:00,
2013-08-23 16:25:00,79.8,59.0,30.53,NE,45,0.0,0.0,49,0.00,,,0.00,WUHU216HW,2013-08-23 20:25:00,
2013-08-23 16:30:00,79.7,58.8,30.53,ENE,68,0.0,0.0,49,0.00,,,0.00,WUHU216HW,2013-08-23 20:30:00,
2013-08-23 16:35:00,79.7,58.8,30.53,ENE,68,0.0,0.0,49,0.00,,,0.00,WUHU216HW,2013-08-23 20:35:00,
2013-08-23 16:40:00,79.5,58.6,30.52,NE,45,0.0,0.0,49,0.00,,,0.00,WUHU216HW,2013-08-23 20:40:00,
2013-08-23 16:45:00,79.5,58.6,30.53,NE,45,0.0,0.0,49,0.00,,,0.00,WUHU216HW,2013-08-23 20:45:00,
2013-08-23 16:50:00,79.5,59.2,30.52,NE,45,0.0,0.0,50,0.00,,,0.00,WUHU216HW,2013-08-23 20:50:00,
2013-08-23 16:55:00,79.3,58.5,30.52,NE,45,0.0,0.0,49,0.00,,,0.00,WUHU216HW,2013-08-23 20:55:00,
2013-08-23 17:00:00,78.9,58.1,30.53,NE,45,0.0,0.0,49,0.00,,,0.00,WUHU216HW,2013-08-23 21:00:00,
2013-08-23 17:05:00,78.9,58.8,30.53,NE,45,0.0,0.0,50,0.00,,,0.00,WUHU216HW,2013-08-23 21:05:00,
2013-08-23 17:10:00,78.8,58.6,30.53,ENE,68,0.0,0.0,50,0.00,,,0.00,WUHU216HW,2013-08-23 21:10:00,
2013-08-23 17:15:00,78.6,58.4,30.53,ENE,68,0.0,0.0,50,0.00,,,0.00,WUHU216HW,2013-08-23 21:15:00,
2013-08-23 17:20:00,78.6,58.4,30.53,ENE,68,0.0,0.0,50,0.00,,,0.00,WUHU216HW,2013-08-23 21:20:00,
2013-08-23 17:25:00,78.4,58.8,30.53,ENE,68,0.0,0.0,51,0.00,,,0.00,WUHU216HW,2013-08-23 21:25:00,
2013-08-23 17:30:00,78.0,58.4,30.53,ENE,68,0.0,0.0,51,0.00,,,0.00,WUHU216HW,2013-08-23 21:30:00,
2013-08-23 17:35:00,78.0,58.4,30.53,NE,45,0.0,0.0,51,0.00,,,0.00,WUHU216HW,2013-08-23 21:35:00,
2013-08-23 17:40:00,77.7,58.1,30.53,NE,45,0.0,0.0,51,0.00,,,0.00,WUHU216HW,2013-08-23 21:40:00,
2013-08-23 17:45:00,77.5,58.0,30.53,NE,45,0.0,0.0,51,0.00,,,0.00,WUHU216HW,2013-08-23 21:45:00,
2013-08-23 17:50:00,77.5,58.0,30.53,NE,45,0.0,0.0,51,0.00,,,0.00,WUHU216HW,2013-08-23 21:50:00,
2013-08-23 17:55:00,77.1,57.6,30.53,NE,45,0.0,0.0,51,0.00,,,0.00,WUHU216HW,2013-08-23 21:55:00,
2013-08-23 17:59:00,76.8,57.3,30.53,NE,45,0.0,0.0,51,0.00,,,0.00,WUHU216HW,2013-08-23 21:59:00,
2013-08-23 18:04:00,76.8,57.3,30.53,NE,45,0.0,0.0,51,0.00,,,0.00,WUHU216HW,2013-08-23 22:04:00,
2013-08-23 18:09:00,76.6,57.7,30.53,NE,45,0.0,0.0,52,0.00,,,0.00,WUHU216HW,2013-08-23 22:09:00,
2013-08-23 18:14:00,76.2,56.8,30.53,NE,45,0.0,0.0,51,0.00,,,0.00,WUHU216HW,2013-08-23 22:14:00,
2013-08-23 18:19:00,76.1,56.7,30.53,NE,45,0.0,0.0,51,0.00,,,0.00,WUHU216HW,2013-08-23 22:19:00,
2013-08-23 18:24:00,75.9,56.0,30.53,NE,45,0.0,0.0,50,0.00,,,0.00,WUHU216HW,2013-08-23 22:24:00,
2013-08-23 18:29:00,75.5,56.7,30.53,NE,45,0.0,0.0,52,0.00,,,0.00,WUHU216HW,2013-08-23 22:29:00,
2013-08-23 18:34:00,75.3,56.5,30.53,NE,45,0.0,0.0,52,0.00,,,0.00,WUHU216HW,2013-08-23 22:34:00,
2013-08-23 18:39:00,75.0,56.7,30.53,NE,45,0.0,0.0,53,0.00,,,0.00,WUHU216HW,2013-08-23 22:39:00,
2013-08-23 18:44:00,74.8,57.0,30.53,NE,45,0.0,0.0,54,0.00,,,0.00,WUHU216HW,2013-08-23 22:44:00,
2013-08-23 18:49:00,74.4,56.6,30.53,NE,45,0.0,0.0,54,0.00,,,0.00,WUHU216HW,2013-08-23 22:49:00,
2013-08-23 18:54:00,74.1,56.5,30.53,NE,45,0.0,0.0,54,0.00,,,0.00,WUHU216HW,2013-08-23 22:54:00,
2013-08-23 18:59:00,73.9,56.1,30.54,NE,45,0.0,0.0,54,0.00,,,0.00,WUHU216HW,2013-08-23 22:59:00,
2013-08-23 19:04:00,73.5,56.3,30.53,NE,45,0.0,0.0,55,0.00,,,0.00,WUHU216HW,2013-08-23 23:04:00,
2013-08-23 19:09:00,73.2,56.4,30.54,NE,45,0.0,0.0,56,0.00,,,0.00,WUHU216HW,2013-08-23 23:09:00,
2013-08-23 19:14:00,73.0,56.3,30.54,NE,45,0.0,0.0,56,0.00,,,0.00,WUHU216HW,2013-08-23 23:14:00,
2013-08-23 19:19:00,72.6,55.9,30.53,ENE,68,0.0,0.0,56,0.00,,,0.00,WUHU216HW,2013-08-23 23:19:00,
2013-08-23 19:24:00,72.3,56.1,30.54,ENE,68,0.0,0.0,57,0.00,,,0.00,WUHU216HW,2013-08-23 23:24:00,
2013-08-23 19:29:00,71.7,56.1,30.54,ENE,68,0.0,0.0,58,0.00,,,0.00,WUHU216HW,2013-08-23 23:29:00,
2013-08-23 19:34:00,71.4,55.8,30.54,ENE,68,0.0,0.0,58,0.00,,,0.00,WUHU216HW,2013-08-23 23:34:00,
2013-08-23 19:39:00,71.2,56.1,30.54,ENE,68,0.0,0.0,59,0.00,,,0.00,WUHU216HW,2013-08-23 23:39:00,
2013-08-23 19:44:00,70.8,56.3,30.54,ENE,68,0.0,0.0,60,0.00,,,0.00,WUHU216HW,2013-08-23 23:44:00,
2013-08-23 19:49:00,70.7,56.2,30.53,ENE,68,0.0,0.0,60,0.00,,,0.00,WUHU216HW,2013-08-23 23:49:00,
2013-08-23 19:54:00,70.5,56.0,30.53,ENE,68,0.0,0.0,60,0.00,,,0.00,WUHU216HW,2013-08-23 23:54:00,
2013-08-23 19:59:00,70.1,56.1,30.53,ENE,68,0.0,0.0,61,0.00,,,0.00,WUHU216HW,2013-08-23 23:59:00,
2013-08-23 20:04:00,69.8,56.2,30.53,ENE,68,0.0,0.0,62,0.00,,,0.00,WUHU216HW,2013-08-24 00:04:00,
2013-08-23 20:09:00,69.4,55.8,30.54,ENE,68,0.0,0.0,62,0.00,,,0.00,WUHU216HW,2013-08-24 00:09:00,
2013-08-23 20:14:00,69.0,55.5,30.54,ENE,68,0.0,0.0,62,0.00,,,0.00,WUHU216HW,2013-08-24 00:14:00,
2013-08-23 20:19:00,68.7,55.5,30.54,ENE,68,0.0,0.0,63,0.00,,,0.00,WUHU216HW,2013-08-24 00:19:00,
2013-08-23 20:24:00,68.7,55.4,30.54,ENE,68,0.0,0.0,63,0.00,,,0.00,WUHU216HW,2013-08-24 00:24:00,
2013-08-23 20:29:00,68.1,55.4,30.54,ENE,68,0.0,0.0,64,0.00,,,0.00,WUHU216HW,2013-08-24 00:29:00,
2013-08-23 20:34:00,67.8,55.1,30.54,ENE,68,0.0,0.0,64,0.00,,,0.00,WUHU216HW,2013-08-24 00:34:00,
2013-08-23 20:39:00,67.6,54.9,30.54,ENE,68,0.0,0.0,64,0.00,,,0.00,WUHU216HW,2013-08-24 00:39:00,
2013-08-23 20:44:00,67.2,54.6,30.54,ENE,68,0.0,0.0,64,0.00,,,0.00,WUHU216HW,2013-08-24 00:44:00,
2013-08-23 20:49:00,66.9,54.7,30.54,ENE,68,0.0,0.0,65,0.00,,,0.00,WUHU216HW,2013-08-24 00:49:00,
2013-08-23 20:54:00,66.5,54.3,30.55,ENE,68,0.0,0.0,65,0.00,,,0.00,WUHU216HW,2013-08-24 00:54:00,
2013-08-23 20:59:00,66.3,54.2,30.55,ENE,68,0.0,0.0,65,0.00,,,0.00,WUHU216HW,2013-08-24 00:59:00,
2013-08-23 21:04:00,66.0,54.2,30.55,ENE,68,0.0,0.0,66,0.00,,,0.00,WUHU216HW,2013-08-24 01:04:00,
2013-08-23 21:09:00,65.8,54.1,30.55,ENE,68,0.0,0.0,66,0.00,,,0.00,WUHU216HW,2013-08-24 01:09:00,
2013-08-23 21:14:00,65.4,53.7,30.55,ENE,68,0.0,0.0,66,0.00,,,0.00,WUHU216HW,2013-08-24 01:14:00,
2013-08-23 21:19:00,65.3,53.6,30.55,ENE,68,0.0,0.0,66,0.00,,,0.00,WUHU216HW,2013-08-24 01:19:00,
2013-08-23 21:24:00,64.7,53.6,30.55,ENE,68,0.0,0.0,67,0.00,,,0.00,WUHU216HW,2013-08-24 01:24:00,
2013-08-23 21:29:00,64.4,53.6,30.55,ENE,68,0.0,0.0,68,0.00,,,0.00,WUHU216HW,2013-08-24 01:29:00,
2013-08-23 21:34:00,64.2,53.8,30.55,ENE,68,0.0,0.0,69,0.00,,,0.00,WUHU216HW,2013-08-24 01:34:00,
2013-08-23 21:39:00,64.0,53.7,30.56,ENE,68,0.0,0.0,69,0.00,,,0.00,WUHU216HW,2013-08-24 01:39:00,
2013-08-23 21:44:00,63.6,53.3,30.56,ENE,68,0.0,0.0,69,0.00,,,0.00,WUHU216HW,2013-08-24 01:44:00,
2013-08-23 21:49:00,63.6,53.7,30.56,ENE,68,0.0,0.0,70,0.00,,,0.00,WUHU216HW,2013-08-24 01:49:00,
2013-08-23 21:54:00,63.3,53.7,30.57,ENE,68,0.0,0.0,71,0.00,,,0.00,WUHU216HW,2013-08-24 01:54:00,
2013-08-23 21:59:00,63.1,53.9,30.57,ENE,68,0.0,0.0,72,0.00,,,0.00,WUHU216HW,2013-08-24 01:59:00,
2013-08-23 22:04:00,62.7,53.6,30.57,ENE,68,0.0,0.0,72,0.00,,,0.00,WUHU216HW,2013-08-24 02:04:00,
2013-08-23 22:09:00,62.4,53.2,30.57,ENE,68,0.0,0.0,72,0.00,,,0.00,WUHU216HW,2013-08-24 02:09:00,
2013-08-23 22:14:00,62.2,53.0,30.57,ENE,68,0.0,0.0,72,0.00,,,0.00,WUHU216HW,2013-08-24 02:14:00,
2013-08-23 22:19:00,61.8,52.7,30.57,ENE,68,0.0,0.0,72,0.00,,,0.00,WUHU216HW,2013-08-24 02:19:00,
2013-08-23 22:24:00,61.7,52.8,30.57,ENE,68,0.0,0.0,73,0.00,,,0.00,WUHU216HW,2013-08-24 02:24:00,
2013-08-23 22:29:00,61.3,52.6,30.57,ENE,68,0.0,0.0,73,0.00,,,0.00,WUHU216HW,2013-08-24 02:29:00,
2013-08-23 22:34:00,60.9,52.6,30.57,ENE,68,0.0,0.0,74,0.00,,,0.00,WUHU216HW,2013-08-24 02:34:00,
2013-08-23 22:39:00,60.9,52.6,30.57,ENE,68,0.0,0.0,74,0.00,,,0.00,WUHU216HW,2013-08-24 02:39:00,
2013-08-23 22:44:00,60.9,52.6,30.58,ENE,68,0.0,0.0,74,0.00,,,0.00,WUHU216HW,2013-08-24 02:44:00,
2013-08-23 22:49:00,60.9,52.6,30.57,ENE,68,0.0,0.0,74,0.00,,,0.00,WUHU216HW,2013-08-24 02:49:00,
2013-08-23 22:54:00,60.6,52.3,30.58,ENE,68,0.0,0.0,74,0.00,,,0.00,WUHU216HW,2013-08-24 02:54:00,
2013-08-23 22:59:00,60.6,52.7,30.58,ENE,68,0.0,0.0,75,0.00,,,0.00,WUHU216HW,2013-08-24 02:59:00,
2013-08-23 23:04:00,60.4,52.5,30.58,ENE,68,0.0,0.0,75,0.00,,,0.00,WUHU216HW,2013-08-24 03:04:00,
2013-08-23 23:09:00,60.4,52.5,30.58,ENE,68,0.0,0.0,75,0.00,,,0.00,WUHU216HW,2013-08-24 03:09:00,
2013-08-23 23:14:00,60.2,52.7,30.58,ENE,68,0.0,0.0,76,0.00,,,0.00,WUHU216HW,2013-08-24 03:14:00,
2013-08-23 23:19:00,59.9,52.3,30.58,ENE,68,0.0,0.0,76,0.00,,,0.00,WUHU216HW,2013-08-24 03:19:00,
2013-08-23 23:24:00,59.7,51.8,30.58,ENE,68,0.0,0.0,75,0.00,,,0.00,WUHU216HW,2013-08-24 03:24:00,
2013-08-23 23:29:00,59.5,51.9,30.58,ENE,68,0.0,0.0,76,0.00,,,0.00,WUHU216HW,2013-08-24 03:29:00,
2013-08-23 23:34:00,59.3,51.8,30.58,ENE,68,0.0,0.0,76,0.00,,,0.00,WUHU216HW,2013-08-24 03:34:00,
2013-08-23 23:39:00,58.8,51.6,30.58,ENE,68,0.0,0.0,77,0.00,,,0.00,WUHU216HW,2013-08-24 03:39:00,
2013-08-23 23:44:00,58.8,51.9,30.58,ENE,68,0.0,0.0,78,0.00,,,0.00,WUHU216HW,2013-08-24 03:44:00,
2013-08-23 23:49:00,58.8,51.6,30.58,ENE,68,0.0,0.0,77,0.00,,,0.00,WUHU216HW,2013-08-24 03:49:00,
2013-08-23 23:54:00,58.8,51.9,30.58,ENE,68,0.0,0.0,78,0.00,,,0.00,WUHU216HW,2013-08-24 03:54:00,
2013-08-23 23:59:00,58.8,51.6,30.58,ENE,68,0.0,0.0,77,0.00,,,0.00,WUHU216HW,2013-08-24 03:59:00,